Search for airport 
image banner adimage banner adimage banner ad
image banner ad

NV60 - Carson-Tahoe Hospital

Located in Carson City, United States

ICAO - NV60, IATA -

Data provided by Airmate  

General information

Coordinates: N39°10'15" W119°46'18"
Elevation is 4849 feet MSL.
Magnetic variation is 16° East
View others Airports in Nevada

Operational data

Special qualification required
Current time UTC:
Current local time:
Weather at : KCXP - Carson ( 4 km )
METAR: KCXP 131035Z AUTO 00000KT 10SM CLR 13/03 A3002 RMK AO2
TAF: KCXP 130530Z 1306/1406 VRB04KT P6SM FEW250 FM131500 21007KT P6SM FEW200 FM132100 25013G22KT P6SM FEW090 FM140300 22010KT P6SM FEW250
View NOTAMs / SUP AIP / TFR affecting this airport [VIEW]
Communications frequencies: [VIEW]

Runways:

Airport contact information

Address: Carson City United States

Satellite view of NV60